Location: Bu�n Treun
(12.1333°N, 108.3167°E)
Time: 23:48:48
(UTC+00:00)

Cosmos 2058 Rocket - Pass Details

Date: 13 July 2020
Orbit: 610 x 639 km, 82.5° (Epoch: 03 August)

Event Time Altitude Azimuth Distance (km) Brightness Sun altitude
Rises 12:12:49 0° 347° (NNW) 2,905 7.1 -13.5°
Reaches altitude 10° 12:15:06 10° 342° (NNW) 1,993 6.3 -14.0°
Maximum altitude 12:19:23 50° 267° (W) 788 4.0 -15.0°
Drops below altitude 10° 12:23:37 10° 192° (SSW) 1,976 5.5 -15.9°
Sets 12:25:53 0° 186° (S) 2,876 6.3 -16.4°
